Regional Weather Roundup
Issued by NWS

Home | Current Version | Previous Version | Text Only | Print | Product List | Glossary On
Versions: 1 2 3 4 5 6 7 8 9 10 11 12 13 14 15 16 17 18 19 20 21 22 23 24 25 26 27 28 29 30 31 32 33 34 35 36 37 38 39 40 41 42 43 44 45 46 47 48 49 50
000
ASUS43 KOAX 301010
RWRNE

WEATHER ROUNDUP FOR NEBRASKA
NATIONAL WEATHER SERVICE OMAHA NE
500 AM CDT TUE SEP 30 2014

NOTES: SATELLITE DATA IS BEING USED TO AUGMENT CLOUD COVER ABOVE
       12000 FEET.
       "FAIR" INDICATES FEW OR NO CLOUDS BELOW 12,000 FEET WITH NO
       SIGNIFICANT WEATHER AND/OR OBSTRUCTIONS TO VISIBILITY.

  * THESE STATIONS DO NOT REPORT WEATHER SUCH AS RAIN...SNOW OR FOG.

NEZ001>004-019>022-054>056-301100-
NEBRASKA PANHANDLE

CITY           SKY/WX    TMP DP  RH WIND       PRES   REMARKS
SCOTTSBLUFF    LGT RAIN  51  50  96 W12       29.68S
CHADRON        HVY RAIN  51  50  96 W30G39    29.44F FOG
KIMBALL        LGT RAIN  49  47  92 SW13      29.75R
SIDNEY         CLOUDY    50  46  86 SW14      29.76R
$$

NEZ057>060-069>072-079>082-301100-
SOUTHWEST NEBRASKA

CITY           SKY/WX    TMP DP  RH WIND       PRES   REMARKS
NORTH PLATTE   PTCLDY    57  52  83 SW14      29.75R
IMPERIAL       CLEAR     51  47  86 S8        29.80S
LEXINGTON      CLOUDY    62  60  90 S12       29.78R
MCCOOK         CLEAR     55  50  83 SW12      29.81R
OGALLALA       MOCLDY    52  49  89 SW6       29.76R
$$

NEZ005>010-023>029-035>040-094-301100-
NORTH CENTRAL NEBRASKA

CITY           SKY/WX    TMP DP  RH WIND       PRES   REMARKS
VALENTINE      CLOUDY    62  57  83 SE21G30   29.66F
AINSWORTH      CLOUDY    62  56  82 SE16G24   29.69F
BROKEN BOW     LGT RAIN  66  57  72 S23G31    29.74F
O`NEILL        CLOUDY    65  59  82 SE15G24   29.77F
ORD            LGT RAIN  64  58  80 SE14G23   29.74F
THEDFORD       CLOUDY    61  57  86 S16G22    29.69F
$$

NEZ041-046>049-061>064-073>077-083>087-301100-
SOUTH CENTRAL NEBRASKA

CITY           SKY/WX    TMP DP  RH WIND       PRES   REMARKS
GRAND ISLAND   CLOUDY    66  59  78 S14       29.81F
AURORA         LGT RAIN  66  59  78 S10G17    29.84R
HASTINGS       CLOUDY    66  57  72 S12       29.82F
HEBRON         CLOUDY    68  56  67 S13       29.85F
HOLDREGE       CLOUDY    67  55  64 S14G24    29.78F
KEARNEY *      CLOUDY    66  55  68 SE17      29.78F
YORK           CLOUDY    66  59  77 S12       29.84F
$$

NEZ011>018-030>034-042>045-301100-
NORTHEAST NEBRASKA

CITY           SKY/WX    TMP DP  RH WIND       PRES   REMARKS
NORFOLK        CLOUDY    61  59  93 SE13      29.84S
ALBION         CLOUDY    64  57  77 SE10      29.81F
BLAIR          MOCLDY    63  59  89 E7        29.88F
COLUMBUS *     MOCLDY    64  55  72 SE9       29.85F
FREMONT        MOCLDY    64  60  85 E8        29.88S
TEKAMAH        MOCLDY    58  56  93 CALM      29.88F FOG
WAYNE          CLOUDY    61  59  94 SE14      29.86F FOG
$$

NEZ050>053-065>068-078-088>093-301100-
SOUTHEAST NEBRASKA

CITY           SKY/WX    TMP DP  RH WIND       PRES   REMARKS
LINCOLN        CLOUDY    66  58  75 S13       29.87S
OMAHA EPPLEY   MOCLDY    64  58  80 SE9       29.89F
BEATRICE       CLOUDY    67  59  76 SE9       29.88S
FALLS CITY     PTCLDY    60  58  92 SE6       29.89F
NEBRASKA CITY  MOCLDY    62  56  80 S5        29.89F
PLATTSMOUTH      N/A     60  55  84 E6        29.89F
$$

NEZ044-045-051>053-067-301100-
OMAHA AREA

CITY           SKY/WX    TMP DP  RH WIND       PRES   REMARKS
OMAHA EPPLEY   MOCLDY    64  58  80 SE9       29.89F
BLAIR          MOCLDY    63  59  89 E7        29.88F
FREMONT        MOCLDY    64  60  85 E8        29.88S
MILLARD        MOCLDY    64  59  82 SE6       29.89S
OFFUTT AFB     MOCLDY    62  62  99 E7        29.89F
PLATTSMOUTH      N/A     60  55  84 E6        29.89F
WAHOO          FAIR      62  56  81 SE7       29.88R
$$


USA.gov is the U.S. government's official web portal to all federal, state and local government web resources and services.